DW1449 Weather Reports


Display with metric or nautical units.
time (UTC)temp
F
wind
direction
speed
MPH
gust
MPH
rain 1hr
in
rain 24hr
in
rain mn
in
humidity
%
barometer
mb
20260504081551 52 0.0 0.0 0.00 0.37 0.29 95 1009.4
20260504081036 51 0.0 0.0 0.00 0.37 0.29 95 1009.3
20260504080536 52 0.0 0.0 0.00 0.37 0.29 95 1009.2
20260504050536 53 0.0 0.0 0.00 0.36 0.28 97 1007.0
20260504045536 53 0.0 0.0 0.00 0.36 0.28 97 1006.9
20260504045035 53 0.0 0.0 0.00 0.36 0.28 98 1007.0
20260504044543 53 0.0 0.0 0.00 0.36 0.28 97 1007.0
20260504044034 53 0.0 0.0 0.00 0.36 0.28 98 1006.8
20260504043534 53 0.0 0.0 0.00 0.36 0.28 98 1006.9
20260504043041 53 0.0 0.0 0.00 0.36 0.28 98 1006.9
20260504042537 53 0.0 0.0 0.00 0.36 0.28 98 1006.9
20260504042032 53 0.0 0.0 0.00 0.36 0.28 98 1006.9
20260504041549 53 0.0 0.0 0.00 0.36 0.28 98 1006.9
20260504041032 53 0.0 0.0 0.00 0.36 0.28 98 1007.0
20260504040533 53 0.0 0.0 0.00 0.36 0.28 98 1007.1
20260504040110 53 0.0 0.0 0.00 0.36 0.28 98 1007.2
20260504035533 53 0.0 0.0 0.00 0.36 0.28 98 1007.0
20260504035033 53 0.0 0.0 0.00 0.36 0.28 98 1007.1
20260504034540 53 0.0 0.0 0.00 0.36 0.28 98 1007.0
20260504034033 53 0.0 0.0 0.00 0.36 0.28 97 1007.0
20260504033534 53 0.0 0.0 0.00 0.36 0.28 97 1007.1
20260504033043 53 0.0 0.0 0.00 0.36 0.28 97 1007.0
20260504032535 53 0.0 0.0 0.00 0.36 0.28 97 1006.9
20260504032034 53 0.0 0.0 0.00 0.36 0.28 97 1007.0
20260504031542 53 0.0 0.0 0.00 0.36 0.28 97 1007.0
20260504031034 53 0.0 0.0 0.00 0.36 0.28 97 1006.9
20260504030534 53 0.0 0.0 0.00 0.36 0.28 97 1007.0
20260504030041 53 0.0 0.0 0.00 0.36 0.28 97 1007.0
20260504025533 53 0.0 0.0 0.00 0.36 0.28 97 1006.8
20260504025038 53 0.0 0.0 0.00 0.36 0.28 97 1007.1
20260504024547 53 0.0 0.0 0.00 0.36 0.28 97 1007.2
20260504024035 53 0.0 0.0 0.00 0.36 0.28 97 1007.1
20260504023535 53 0.0 0.0 0.00 0.36 0.28 97 1007.2
20260504023040 53 0.0 0.0 0.00 0.36 0.28 97 1007.2
20260504022537 53 0.0 0.0 0.00 0.36 0.28 97 1007.2
20260504022036 53 0.0 0.0 0.00 0.36 0.28 97 1007.1
20260504021550 53 0.0 0.0 0.00 0.36 0.28 97 1007.2
20260504021035 53 0.0 0.0 0.00 0.36 0.28 97 1007.1
20260504020535 53 0.0 0.0 0.00 0.36 0.28 97 1007.1
20260504020048 53 0.0 0.0 0.00 0.36 0.28 97 1007.0
20260504015535 53 0.0 0.0 0.00 0.36 0.28 97 1007.1
20260504015035 53 0.0 0.0 0.00 0.36 0.28 97 1007.0
20260504014555 53 0.0 0.0 0.00 0.36 0.28 97 1007.0
20260504014034 53 0.0 0.0 0.00 0.36 0.28 97 1007.0
20260504013534 53 0.0 0.0 0.00 0.36 0.28 97 1007.0
20260504013049 53 0.0 0.0 0.00 0.36 0.28 97 1007.0
20260504012538 53 0.0 0.0 0.00 0.36 0.28 97 1007.1
20260504012035 53 0.0 0.0 0.00 0.36 0.28 97 1006.9
20260504011542 53 0.0 0.0 0.00 0.36 0.28 97 1007.0
20260504011036 53 0.0 0.0 0.00 0.36 0.28 97 1006.8
20260504010536 53 0.0 0.0 0.00 0.36 0.28 97 1006.9
20260504010047 53 0.0 0.0 0.00 0.36 0.28 96 1006.8
20260504005537 53 0.0 0.0 0.00 0.36 0.28 96 1006.9
20260504005035 53 0.0 0.0 0.01 0.36 0.28 96 1006.9
20260504004551 53 0.0 0.0 0.01 0.36 0.28 96 1006.7
20260504004036 53 0.0 0.0 0.02 0.36 0.28 96 1006.7
20260504003536 53 0.0 0.0 0.02 0.36 0.28 96 1007.0
20260504003055 53 0.0 0.0 0.02 0.36 0.28 96 1006.9
20260504002535 53 0.0 0.0 0.02 0.36 0.28 96 1006.7
20260504002035 53 0.0 0.0 0.02 0.36 0.28 96 1006.9
20260504001600 53 0.0 0.0 0.02 0.36 0.28 96 1006.8
20260504001035 53 0.0 0.0 0.03 0.36 0.28 96 1006.9
20260504000534 53 0.0 0.0 0.03 0.36 0.28 96 1007.1
20260504000042 53 0.0 0.0 0.04 0.36 0.28 96 1007.4
20260503235536 53 0.0 0.0 0.05 0.36 0.28 96 1007.5
20260503235036 53 0.0 0.0 0.03 0.34 0.26 96 1007.7
20260503234549 53 0.0 0.0 0.04 0.34 0.26 96 1007.7
20260503234034 53 0.0 0.0 0.05 0.33 0.25 96 1007.5
20260503233532 53 0.0 0.0 0.20 0.33 0.25 95 1007.6
20260503233054 53 0.0 0.0 0.22 0.33 0.25 95 1007.5
20260503232533 53 0.0 0.0 0.25 0.33 0.25 95 1007.5
20260503232033 53 0.0 0.0 0.25 0.33 0.25 95 1007.8
20260503231543 53 0.0 0.0 0.25 0.33 0.25 95 1007.9
20260503231033 53 0.0 0.0 0.25 0.33 0.25 95 1007.8
20260503230534 53 0.0 0.0 0.23 0.31 0.23 95 1008.1
20260503230050 53 0.0 0.0 0.22 0.30 0.22 95 1008.1
20260503225532 53 0.0 0.0 0.23 0.30 0.22 95 1008.2
20260503225035 53 0.0 0.0 0.23 0.30 0.22 94 1008.1
20260503224545 53 0.0 0.0 0.23 0.29 0.22 94 1008.4
20260503224035 53 0.0 0.0 0.22 0.27 0.19 94 1008.6
20260503223534 53 0.0 0.0 0.07 0.13 0.05 94 1009.4
20260503223043 53 0.0 0.0 0.05 0.10 0.02 93 1008.7
20260503222536 53 0.0 0.0 0.05 0.08 0.00 93 1008.6
20260503222035 53 0.0 0.0 0.07 0.08 0.00 93 1008.4
20260503221539 53 0.0 0.0 0.07 0.07 0.00 93 1008.4
20260503221033 53 0.0 0.0 0.07 0.07 0.00 92 1008.5
20260503220533 53 0.0 0.0 0.07 0.07 0.00 92 1008.3
20260503220041 53 0.0 0.0 0.07 0.07 0.00 92 1008.6
20260503215533 53 0.0 0.0 0.06 0.07 0.07 91 1008.6
20260503215033 53 0.0 0.0 0.06 0.07 0.07 91 1008.8
20260503214546 53 0.0 0.0 0.05 0.06 0.06 91 1008.7
20260503214034 53 0.0 0.0 0.05 0.05 0.05 91 1008.7
20260503213535 53 0.0 0.0 0.05 0.05 0.05 90 1008.5
20260503213044 53 0.0 0.0 0.04 0.04 0.04 90 1009.0
20260503212533 54 0.0 0.0 0.03 0.03 0.03 89 1008.9
20260503212033 54 0.0 0.0 0.01 0.01 0.01 89 1009.1
20260503211541 54 0.0 0.0 0.00 0.00 0.00 89 1009.3
20260503211033 54 0.0 0.0 0.00 0.00 0.00 88 1009.1
20260503210534 54 0.0 0.0 0.00 0.00 0.00 88 1009.3
20260503210042 54 0.0 0.0 0.00 0.00 0.00 88 1009.4
20260503205534 54 0.0 0.0 0.00 0.00 0.00 87 1009.2
20260503205035 55 0.0 0.0 0.00 0.00 0.00 87 1009.2
20260503204542 55 0.0 0.0 0.00 0.00 0.00 87 1009.2
20260503204034 55 0.0 0.0 0.00 0.00 0.00 87 1009.1
20260503203535 55 0.0 0.0 0.00 0.00 0.00 87 1009.1
20260503203039 55 0.0 0.0 0.00 0.00 0.00 87 1009.1
20260503202534 55 0.0 0.0 0.00 0.00 0.00 87 1009.2
20260503202034 55 0.0 0.0 0.00 0.00 0.00 87 1009.1
20260503201541 55 0.0 0.0 0.00 0.00 0.00 87 1008.8
20260503201038 55 0.0 0.0 0.00 0.00 0.00 87 1008.9
20260503200537 55 0.0 0.0 0.00 0.00 0.00 87 1008.9
20260503200042 55 0.0 0.0 0.00 0.00 0.00 87 1009.1
20260503195534 55 0.0 0.0 0.00 0.00 0.00 87 1009.1
20260503195034 55 0.0 0.0 0.00 0.00 0.00 87 1009.2
20260503194543 55 0.0 0.0 0.00 0.00 0.00 87 1009.2
20260503194035 55 0.0 0.0 0.00 0.00 0.00 88 1009.2
20260503193535 55 0.0 0.0 0.00 0.00 0.00 88 1009.2
20260503193049 55 0.0 0.0 0.00 0.00 0.00 88 1009.3
20260503192535 55 0.0 0.0 0.00 0.00 0.00 88 1009.3
20260503192034 55 0.0 0.0 0.00 0.00 0.00 88 1009.3
20260503191541 55 0.0 0.0 0.00 0.00 0.00 88 1009.3
20260503191036 55 0.0 0.0 0.00 0.00 0.00 88 1009.4
20260503190534 55 0.0 0.0 0.00 0.00 0.00 88 1009.3
20260503190048 55 0.0 0.0 0.00 0.00 0.00 88 1009.2
20260503185534 56 0.0 0.0 0.00 0.00 0.00 88 1009.3
20260503185036 56 0.0 0.0 0.00 0.00 0.00 88 1009.3
20260503184544 56 0.0 0.0 0.00 0.00 0.00 87 1009.4
20260503184034 56 0.0 0.0 0.00 0.00 0.00 87 1009.4
20260503183531 56 0.0 0.0 0.00 0.00 0.00 87 1009.4
20260503183056 57 0.0 0.0 0.00 0.00 0.00 86 1009.4
20260503182533 57 0.0 0.0 0.00 0.00 0.00 85 1009.5
20260503182035 58 0.0 0.0 0.00 0.00 0.00 85 1009.7
20260503181614 58 0.0 0.0 0.00 0.00 0.00 84 1009.7
20260503181035 58 0.0 0.0 0.00 0.00 0.00 84 1009.7
20260503180534 58 0.0 0.0 0.00 0.00 0.00 84 1009.6
20260503180042 58 0.0 0.0 0.00 0.00 0.00 84 1009.7
20260503175534 58 0.0 0.0 0.00 0.00 0.00 83 1009.7
20260503175034 59 0.0 0.0 0.00 0.00 0.00 83 1009.9
20260503174543 59 0.0 0.0 0.00 0.00 0.00 83 1009.9
20260503174034 59 0.0 0.0 0.00 0.00 0.00 83 1010.0
20260503173534 59 0.0 0.0 0.00 0.00 0.00 83 1009.9
20260503173040 59 0.0 0.0 0.00 0.00 0.00 82 1010.1
20260503172538 59 0.0 0.0 0.00 0.00 0.00 82 1009.9
20260503172038 59 0.0 0.0 0.00 0.00 0.00 81 1010.2
20260503171543 60 0.0 0.0 0.00 0.00 0.00 81 1010.1
20260503171034 60 0.0 0.0 0.00 0.00 0.00 81 1010.2
20260503170535 60 0.0 0.0 0.00 0.00 0.00 82 1010.1
20260503150534 60 0.0 0.0 0.00 0.00 0.00 80 1011.0
20260503131035 58 0.0 0.0 0.00 0.00 0.00 81 1012.0
20260503130535 58 0.0 0.0 0.00 0.00 0.00 80 1012.2
20260503110535 61 0.0 0.0 0.00 0.00 0.00 74 1012.2